Simultaneous Nadir Overpasses (SNOs) Predictions

Prediction of SNOs between GOES-15 and NPP Satellite Orbit:

Table of predicted SNOs for the next 14.0 days since TLE Epoch: 9/6/2013
Index Date Time (GOES-15) GOES-15 Lat,Lon NPP Lat,Lon Distance(km) Time Diff (sec)
1 09/07/2013 10:18:46 0.41,-135.47 0.03,-133.67 204.90 80
2 09/08/2013 22:40:44 -0.39,-135.44 -1.20,-138.98 403.99 80
3 09/09/2013 22:24:41 -0.40,-135.44 -0.18,-134.45 113.15 80
4 09/11/2013 10:43:50 0.38,-135.50 1.35,-139.72 481.87 80
5 09/12/2013 10:25:06 0.39,-135.50 0.32,-135.20 34.31 80
6 09/14/2013 22:28:21 -0.37,-135.44 -0.47,-135.98 60.97 80
7 09/15/2013 22:12:17 -0.38,-135.44 0.49,-131.44 455.25 80
8 09/17/2013 10:31:27 0.35,-135.48 0.61,-136.72 140.67 80
9 09/18/2013 10:15:23
